This is the latest recevied weather packets stored in our database for station/object N0NPO. If no packets are shown the sender has not sent any weather packets the latest 10 day(s).
| Time | Temp. | Humidity | Pressure | Rain* | Wind** | Luminosity | Snow |
|---|---|---|---|---|---|---|---|
| 1778346573 | 13.89° C | 1% | 1018.7 hPa | 0 mm | - | 779 W/m² | - |
| 1778346269 | 12.78° C | 1% | 1018.7 hPa | 0 mm | - | 793 W/m² | - |
| 1778345965 | 12.78° C | 1% | 1018.6 hPa | 0 mm | - | 708 W/m² | - |
| 1778345659 | 13.33° C | 1% | 1018.7 hPa | 0 mm | - | 710 W/m² | - |
| 1778345354 | 12.22° C | 1% | 1018.7 hPa | 0 mm | - | 656 W/m² | - |
| 1778345051 | 12.78° C | 1% | 1018.6 hPa | 0 mm | - | 744 W/m² | - |
| 1778344747 | 13.33° C | 1% | 1018.4 hPa | 0 mm | - | 739 W/m² | - |
| 1778344444 | 12.78° C | 1% | 1018.2 hPa | 0 mm | - | 772 W/m² | - |
| 1778344143 | 12.78° C | 1% | 1018.2 hPa | 0 mm | - | 761 W/m² | - |
| 1778343842 | 12.78° C | 1% | 1018.3 hPa | 0 mm | - | 690 W/m² | - |
| 1778343538 | 12.78° C | 1% | 1018.3 hPa | 0 mm | - | 735 W/m² | - |
| 1778343234 | 12.22° C | 1% | 1018.2 hPa | 0 mm | - | 722 W/m² | - |
| 1778342930 | 12.78° C | 1% | 1018.2 hPa | 0 mm | - | 718 W/m² | - |
| 1778342626 | 12.78° C | 1% | 1018.1 hPa | 0 mm | - | 584 W/m² | - |
| 1778342321 | 11.67° C | 1% | 1018 hPa | 0 mm | - | 473 W/m² | - |
| 1778342018 | 12.22° C | 1% | 1018.1 hPa | 0 mm | - | 432 W/m² | - |
| 1778341714 | 11.67° C | 1% | 1018.1 hPa | 0 mm | - | 368 W/m² | - |
| 1778341411 | 11.67° C | 1% | 1018 hPa | 0 mm | - | 538 W/m² | - |
| 1778341108 | 11.67° C | 1% | 1017.9 hPa | 0 mm | - | 405 W/m² | - |
| 1778340804 | 11.67° C | 1% | 1017.8 hPa | 0 mm | - | 595 W/m² | - |
| 1778340502 | 12.22° C | 1% | 1017.6 hPa | 0 mm | - | 620 W/m² | - |
| 1778340197 | 11.67° C | 1% | 1017.5 hPa | 0 mm | - | 681 W/m² | - |
| 1778339895 | 11.67° C | 1% | 1017.4 hPa | 0 mm | - | 675 W/m² | - |
| 1778339591 | 11.11° C | 1% | 1017.3 hPa | 0 mm | - | 609 W/m² | - |
| 1778339290 | 11.11° C | 1% | 1017.5 hPa | 0 mm | - | 437 W/m² | - |
* Rain latest hour (hover to see other rain measurements)
** Current wind speed in m/s (hover to see current wind gust speed)